Showing default

KITSAT 3, 25756

Orbit data source: Space-Track

KITSAT 3, 25756 is a payload satellite owned by KAIST (KR) in SSO that was launched on Wed, 26 May 1999 UTC via a PSLV launch vehicle from the Sirharikota (SRI). Payload-class satellites include a variety of spacecraft equipped with specific instruments for various scientific and technological missions. These include communications satellites like Starlink; space stations such as the ISS; scientific satellites like the Hubble; Earth observation satellites from companies like Planet Labs, Umbra, and HawkEye 360; GPS; miniature CubeSats for education and research; and military/defense satellites.

Loading next visibility...
Identifier
25756, 1999-029A
Orbit
SSO
Last TLE update
2 days ago
Origin
Manufacturer
KAIST
Mission
Non-operational Civil Imaging
Bus & Motor
SI-200, Unknown motor
Mass
110 kg wet, 110 kg dry
Launch date (UTC)
1999-05-26 (26 years ago)
Launch vehicle
PSLV
Launch site
Sirharikota (SRI)
Object type
Payload
Rocket body
Debris
Shape & HBR
Box + 2 Pan, 1.673 m
Radar Cross Section
0.780 m², Medium (>0.1 m² and < 1m²)

Expand to show TLE details & history

TLE from 2 days ago
0 KITSAT 3
1 25756U 99029A   25118.92727515  .00000624  00000-0  15461-3 0  9991
2 25756  98.6537 135.2155 0014543  89.9561 270.3302 14.55480816374768
Epoch: 2025-04-28T22:15Z
Definitive object data (Epoch: 2025-04-28T22:15:16.572Z)
Latitude
-0.00002°
Longitude
-55.73782°
Altitude
710.724 km
Speed
7.5 km/s
True Right ascension
09h 00m 51s
True Declination
0° 00' 00"
Sunlit
Object was in daylight at TLE epoch
Visualization TLE readout
Latitude
56.29179°
Longitude
138.96794°
Altitude
708.996 km
Speed
7.511 km/s
Apparent Right ascension
03h 12m 58s
Apparent Declination
25° 16' 50"
Sunlit
Object is in daylight
Visualization observer readout
Local Sidereal Time
18:40:55
Azimuth
46.132° ENE
Elevation
-8.803°
Doppler factor
1
Orbital elements
Apogee altitude
715.213 km
Perigee altitude
694.612 km
Semi-major axis
7,083.049 km
Eccentricity
0.0014543
Inclination
98.6537°
RAAN
135.2155°
Arg. of periapsis
89.9561°
True anomaly
270.16355°
Mean anomaly
270.3302°
Eccentric anomaly
270.24688°
Mean motion
3.64093 °/min
BSTAR
0.00015461
Orbital period
98.88 mins
Loading maneuver chart data...
Loading SW <> Apogee altitude chart data...
Loading historical data...
Loading historical data...
Loading historical data...
Loading historical data...
Loading historical data...
Loading historical data...
Loading historical data...
Other satellites on launch #29 in the year 1999 (1999-05-26 UTC)

KITSAT 3 Visibility forecast

Observer location: undefined°, undefined°

Span
Click to sort rows by Start time (UTC) header in descending order
Start Az.
Max El. time (UTC)
Max El. Az.
Max El.
End time (UTC)
End Az.
5 mins2025-04-30 12:48:48.589Z62.351° ENE2025-04-30 12:50:48.589Z90.684° ESE16.123°2025-04-30 12:53:48.589Z131.427° SE
7 mins2025-04-30 14:25:48.589Z355.338° N2025-04-30 14:28:48.589Z296.132° NW36.378°2025-04-30 14:32:48.589Z218.105° SW
4 mins2025-04-30 23:55:48.589Z90.011° ESE2025-04-30 23:57:48.589Z56.991° ENE18.487°2025-04-30 23:59:48.589Z28.05° NE
7 mins2025-05-01 01:31:48.589Z197.535° SSW2025-05-01 01:34:48.589Z259.562° W34.129°2025-05-01 01:38:48.589Z329.907° NNW
|